Location: Julian California
(33.0790°N, 116.6010°W)
Time: 17:55:16
(UTC-07:00)

Cosmos 1697 Rocket - Pass Details

Date: 29 March 2019
Orbit: 834 x 842 km, 71.0° (Epoch: 22 April)

Event Time Altitude Azimuth Distance (km) Brightness Sun altitude
Rises 03:23:45 0° 356° (N) 3,386 6.2 -38.8°
Reaches altitude 10° 03:26:57 10° 14° (NNE) 2,447 5.6 -38.2°
Maximum altitude 03:30:52 19° 58° (ENE) 1,882 5.1 -37.6°
Drops below altitude 10° 03:34:45 10° 103° (ESE) 2,436 5.5 -36.9°
Sets 03:37:54 0° 121° (ESE) 3,366 6.1 -36.4°
